ACH2055 EPWA-LFMN

Flight info

Callsign ACH2055
Flight time 2h 17m
Altitude 34000
Route EVINA DCT NAVUR DCT PADKA DCT OGDAS DCT UPLAV DCT LEDVA DCT VAMET DCT RADLY DCT MONFA DCT BABAG DCT ARDAM DCT BIKTU DCT TOBGA DCT DOBIM DCT AKUTI R16 KERIT
Aircraft B738/M-SDE2E3FGHIRWXY/LB1

Departure

Time 2026-05-07 05:55
Airport Warsaw Chopin Airport (EPWA)

Arrival

Time 2026-05-07 08:13
Airport Nice-Côte d'Azur Airport (LFMN)
Time Latitude Longitude Altitude Speed Heading
2026-05-07 05:50 52.16948 20.97039 356 ft 3 kts 120°
2026-05-07 05:50 52.16961 20.97012 354 ft 3 kts 139°
2026-05-07 05:50 52.16976 20.96994 354 ft 2 kts 150°
2026-05-07 05:51 52.16986 20.96985 354 ft 2 kts 154°
2026-05-07 05:51 52.16992 20.96981 356 ft 0 kts 154°
2026-05-07 05:51 52.16984 20.96987 354 ft 6 kts 151°
2026-05-07 05:52 52.16923 20.97043 353 ft 12 kts 152°
2026-05-07 05:52 52.16837 20.97117 354 ft 16 kts 152°
2026-05-07 05:52 52.16736 20.97206 352 ft 17 kts 153°
2026-05-07 05:52 52.16636 20.97294 348 ft 16 kts 147°
2026-05-07 05:53 52.16559 20.97415 352 ft 15 kts 116°
2026-05-07 05:53 52.16517 20.97571 355 ft 15 kts 113°
2026-05-07 05:53 52.16478 20.97718 349 ft 14 kts 114°
2026-05-07 05:53 52.16407 20.97797 352 ft 13 kts 190°
2026-05-07 05:54 52.16325 20.97733 354 ft 13 kts 225°
2026-05-07 05:54 52.16321 20.97623 349 ft 0 kts 291°
2026-05-07 05:54 52.16325 20.97606 352 ft 11 kts 291°
2026-05-07 05:54 52.16452 20.97147 347 ft 80 kts 294°
2026-05-07 05:55 52.16764 20.96034 353 ft 133 kts 294°
2026-05-07 05:55 52.17180 20.94559 621 ft 150 kts 295°
2026-05-07 05:55 52.17630 20.92950 922 ft 161 kts 294°
2026-05-07 05:55 52.18104 20.91198 1221 ft 184 kts 291°
2026-05-07 05:56 52.18212 20.89164 2055 ft 177 kts 254°
2026-05-07 05:56 52.17887 20.87128 2499 ft 202 kts 253°
2026-05-07 05:56 52.17536 20.84786 2739 ft 222 kts 255°
2026-05-07 05:56 52.17178 20.82224 2962 ft 243 kts 255°
2026-05-07 05:57 52.16813 20.79517 3479 ft 252 kts 256°
2026-05-07 05:57 52.16440 20.76705 4294 ft 254 kts 256°
2026-05-07 05:57 52.16069 20.73881 5219 ft 254 kts 256°
2026-05-07 05:57 52.15460 20.71170 6035 ft 258 kts 234°
2026-05-07 05:58 52.14233 20.69052 6844 ft 261 kts 221°
2026-05-07 05:58 52.12807 20.67200 7796 ft 261 kts 218°
2026-05-07 05:58 52.11350 20.65402 8741 ft 264 kts 218°
2026-05-07 05:58 52.09876 20.63587 9688 ft 266 kts 218°
2026-05-07 05:59 52.08399 20.61756 10357 ft 278 kts 218°
2026-05-07 05:59 52.06785 20.59741 10551 ft 304 kts 218°
2026-05-07 05:59 52.05053 20.57568 10782 ft 327 kts 218°
2026-05-07 05:59 52.03223 20.55269 11360 ft 336 kts 218°
2026-05-07 06:00 52.01363 20.52931 12157 ft 339 kts 218°
2026-05-07 06:00 51.99491 20.50576 13028 ft 341 kts 218°
2026-05-07 06:00 51.97601 20.48201 13868 ft 344 kts 218°
2026-05-07 06:00 51.95702 20.45884 14616 ft 348 kts 213°
2026-05-07 06:01 51.93444 20.44308 15342 ft 357 kts 196°
2026-05-07 06:01 51.90988 20.43731 16097 ft 363 kts 189°
2026-05-07 06:01 51.88452 20.43365 16871 ft 367 kts 188°
2026-05-07 06:01 51.85889 20.43029 17621 ft 371 kts 188°
2026-05-07 06:02 51.83294 20.42680 18330 ft 375 kts 188°
2026-05-07 06:02 51.80677 20.42311 18986 ft 378 kts 188°
2026-05-07 06:02 51.78086 20.41931 19668 ft 379 kts 188°
2026-05-07 06:02 51.75440 20.41534 20336 ft 382 kts 188°
2026-05-07 06:03 51.72773 20.41129 20982 ft 385 kts 188°
2026-05-07 06:03 51.70123 20.40725 21598 ft 387 kts 188°
2026-05-07 06:03 51.67414 20.40314 22220 ft 390 kts 188°
2026-05-07 06:03 51.64689 20.39901 22830 ft 393 kts 188°
2026-05-07 06:04 51.61986 20.39492 23414 ft 396 kts 188°
2026-05-07 06:04 51.59232 20.39075 23903 ft 398 kts 188°
2026-05-07 06:04 51.56463 20.38657 24374 ft 401 kts 188°
2026-05-07 06:04 51.53672 20.38235 24841 ft 404 kts 188°
2026-05-07 06:05 51.50860 20.37812 25299 ft 406 kts 188°
2026-05-07 06:05 51.48037 20.37387 25743 ft 409 kts 188°
2026-05-07 06:05 51.45217 20.36962 26167 ft 411 kts 188°
2026-05-07 06:05 51.42352 20.36532 26576 ft 414 kts 188°
2026-05-07 06:06 51.39507 20.35775 26964 ft 414 kts 199°
2026-05-07 06:06 51.36902 20.33849 27386 ft 413 kts 213°
2026-05-07 06:06 51.34566 20.31136 27827 ft 415 kts 217°
2026-05-07 06:06 51.32295 20.28344 28193 ft 417 kts 218°
2026-05-07 06:07 51.29985 20.25487 28548 ft 420 kts 218°
2026-05-07 06:07 51.27650 20.22618 28911 ft 423 kts 217°
2026-05-07 06:07 51.25306 20.19764 29266 ft 425 kts 217°
2026-05-07 06:07 51.22967 20.16940 29614 ft 426 kts 217°
2026-05-07 06:08 51.20598 20.14095 30085 ft 425 kts 217°
2026-05-07 06:08 51.18229 20.11259 30601 ft 421 kts 217°
2026-05-07 06:08 51.15887 20.08461 31107 ft 418 kts 217°
2026-05-07 06:08 51.13582 20.05711 31525 ft 417 kts 217°
2026-05-07 06:09 51.11255 20.02936 31912 ft 416 kts 217°
2026-05-07 06:09 51.08934 20.00171 32331 ft 415 kts 217°
2026-05-07 06:09 51.06648 19.97451 32785 ft 413 kts 217°
2026-05-07 06:09 51.04353 19.94723 33221 ft 411 kts 217°
2026-05-07 06:10 51.02068 19.92010 33674 ft 408 kts 217°
2026-05-07 06:10 50.99895 19.89106 34073 ft 407 kts 223°
2026-05-07 06:10 50.97860 19.85971 34381 ft 407 kts 224°
2026-05-07 06:10 50.95848 19.82799 34656 ft 408 kts 225°
2026-05-07 06:11 50.93860 19.79653 34942 ft 407 kts 225°
2026-05-07 06:11 50.91840 19.76470 35194 ft 408 kts 225°
2026-05-07 06:11 50.89809 19.73287 35442 ft 409 kts 224°
2026-05-07 06:11 50.87798 19.70154 35738 ft 409 kts 224°
2026-05-07 06:12 50.85754 19.66985 35834 ft 412 kts 224°
2026-05-07 06:12 50.81630 19.60615 35838 ft 412 kts 224°
2026-05-07 06:13 50.77573 19.54371 35857 ft 405 kts 224°
2026-05-07 06:13 50.73529 19.48165 35848 ft 403 kts 224°
2026-05-07 06:14 50.69519 19.42027 35851 ft 401 kts 224°
2026-05-07 06:14 50.65527 19.35930 35842 ft 401 kts 224°
2026-05-07 06:15 50.61530 19.29841 35859 ft 401 kts 224°
2026-05-07 06:15 50.57496 19.23710 35857 ft 403 kts 224°
2026-05-07 06:16 50.53446 19.17570 35860 ft 405 kts 224°
2026-05-07 06:16 50.49370 19.11408 35860 ft 406 kts 223°
2026-05-07 06:17 50.45298 19.05265 35851 ft 408 kts 223°
2026-05-07 06:17 50.41216 18.99124 35858 ft 408 kts 223°
2026-05-07 06:18 50.37790 18.93982 35857 ft 409 kts 223°
2026-05-07 06:18 50.33008 18.86822 35859 ft 409 kts 223°
2026-05-07 06:19 50.29577 18.81698 35858 ft 408 kts 223°
2026-05-07 06:19 50.25459 18.75561 35858 ft 408 kts 223°
2026-05-07 06:20 50.21361 18.69470 35861 ft 408 kts 223°
2026-05-07 06:20 50.17235 18.63352 35888 ft 408 kts 223°
2026-05-07 06:21 50.13127 18.57276 35872 ft 408 kts 223°
2026-05-07 06:21 50.08996 18.51181 35866 ft 408 kts 223°
2026-05-07 06:22 50.04886 18.45133 35871 ft 407 kts 222°
2026-05-07 06:22 49.98685 18.36033 35874 ft 407 kts 222°
2026-05-07 06:23 49.94578 18.30023 35869 ft 407 kts 222°
2026-05-07 06:23 49.90363 18.24117 35896 ft 407 kts 220°
2026-05-07 06:24 49.86052 18.18504 35902 ft 407 kts 219°
2026-05-07 06:24 49.81716 18.12841 35914 ft 407 kts 219°
2026-05-07 06:25 49.77412 18.07179 35912 ft 407 kts 220°
2026-05-07 06:25 49.73084 18.01486 35911 ft 407 kts 220°
2026-05-07 06:26 49.68762 17.95866 35912 ft 407 kts 218°
2026-05-07 06:26 49.64293 17.90531 35910 ft 408 kts 217°
2026-05-07 06:27 49.59754 17.85210 35903 ft 408 kts 217°
2026-05-07 06:27 49.55268 17.79910 35895 ft 408 kts 217°
2026-05-07 06:28 49.50766 17.74576 35893 ft 408 kts 217°
2026-05-07 06:28 49.46284 17.69272 35905 ft 408 kts 217°
2026-05-07 06:29 49.41758 17.63928 35907 ft 409 kts 217°
2026-05-07 06:29 49.37261 17.58631 35909 ft 409 kts 217°
2026-05-07 06:30 49.32731 17.53308 35910 ft 410 kts 217°
2026-05-07 06:30 49.28268 17.47837 35906 ft 410 kts 219°
2026-05-07 06:31 49.23895 17.42271 35913 ft 410 kts 219°
2026-05-07 06:31 49.19483 17.36681 35909 ft 411 kts 219°
2026-05-07 06:32 49.15087 17.31154 35918 ft 411 kts 219°
2026-05-07 06:32 49.10647 17.25599 35914 ft 412 kts 219°
2026-05-07 06:33 49.06231 17.20088 35914 ft 412 kts 219°
2026-05-07 06:33 49.01779 17.14547 35916 ft 412 kts 219°
2026-05-07 06:34 48.97353 17.09048 35912 ft 412 kts 219°
2026-05-07 06:34 48.92895 17.03525 35918 ft 412 kts 219°
2026-05-07 06:35 48.88464 16.98046 35916 ft 412 kts 219°
2026-05-07 06:35 48.84012 16.92554 35924 ft 411 kts 219°
2026-05-07 06:36 48.79563 16.87078 35922 ft 411 kts 219°
2026-05-07 06:36 48.75138 16.81645 35924 ft 411 kts 219°
2026-05-07 06:37 48.70403 16.76811 35932 ft 411 kts 208°
2026-05-07 06:37 48.65339 16.72879 35955 ft 410 kts 208°
2026-05-07 06:38 48.60261 16.68925 35932 ft 409 kts 208°
2026-05-07 06:38 48.55234 16.64997 35927 ft 408 kts 208°
2026-05-07 06:39 48.50207 16.61063 35930 ft 406 kts 208°
2026-05-07 06:39 48.45175 16.57129 35932 ft 406 kts 208°
2026-05-07 06:40 48.40184 16.53236 35944 ft 405 kts 208°
2026-05-07 06:40 48.35166 16.49330 35950 ft 405 kts 208°
2026-05-07 06:41 48.30188 16.45465 35953 ft 404 kts 208°
2026-05-07 06:41 48.25179 16.41584 35957 ft 404 kts 208°
2026-05-07 06:42 48.20168 16.37710 35958 ft 404 kts 208°
2026-05-07 06:42 48.15163 16.33849 35964 ft 404 kts 208°
2026-05-07 06:43 48.10175 16.30011 35944 ft 404 kts 208°
2026-05-07 06:43 48.05170 16.26167 35937 ft 404 kts 208°
2026-05-07 06:44 48.00171 16.22336 35935 ft 403 kts 208°
2026-05-07 06:44 47.95174 16.18515 35939 ft 403 kts 208°
2026-05-07 06:45 47.90215 16.14732 35944 ft 402 kts 208°
2026-05-07 06:45 47.85236 16.10942 35934 ft 401 kts 208°
2026-05-07 06:46 47.80299 16.07192 35934 ft 400 kts 208°
2026-05-07 06:46 47.75343 16.03436 35937 ft 399 kts 208°
2026-05-07 06:47 47.70390 15.99688 35948 ft 398 kts 208°
2026-05-07 06:47 47.65439 15.95952 35936 ft 398 kts 208°
2026-05-07 06:48 47.60525 15.92251 35929 ft 398 kts 208°
2026-05-07 06:48 47.55579 15.88531 35939 ft 398 kts 208°
2026-05-07 06:49 47.50650 15.84836 35929 ft 398 kts 208°
2026-05-07 06:49 47.45712 15.81141 35941 ft 399 kts 208°
2026-05-07 06:50 47.40740 15.77428 35924 ft 400 kts 208°
2026-05-07 06:50 47.35755 15.73714 35929 ft 400 kts 208°
2026-05-07 06:51 47.30805 15.70033 35938 ft 400 kts 208°
2026-05-07 06:51 47.25823 15.66336 35935 ft 400 kts 208°
2026-05-07 06:52 47.20833 15.62641 35936 ft 401 kts 208°
2026-05-07 06:52 47.15849 15.58958 35934 ft 401 kts 208°
2026-05-07 06:53 47.10892 15.55303 35935 ft 400 kts 208°
2026-05-07 06:53 47.05905 15.51634 35936 ft 401 kts 208°
2026-05-07 06:54 47.00933 15.47982 35940 ft 401 kts 208°
2026-05-07 06:54 46.95937 15.44321 35938 ft 401 kts 208°
2026-05-07 06:55 46.90945 15.40671 35942 ft 400 kts 208°
2026-05-07 06:55 46.86004 15.37064 35944 ft 399 kts 208°
2026-05-07 06:56 46.81028 15.33439 35940 ft 399 kts 208°
2026-05-07 06:56 46.76047 15.29792 35933 ft 399 kts 209°
2026-05-07 06:57 46.71159 15.25949 35953 ft 398 kts 210°
2026-05-07 06:57 46.66321 15.21982 35953 ft 398 kts 216°
2026-05-07 06:58 46.62198 15.16723 35963 ft 398 kts 228°
2026-05-07 06:58 46.58617 15.10539 35966 ft 398 kts 229°
2026-05-07 06:59 46.55066 15.04397 35977 ft 399 kts 228°
2026-05-07 06:59 46.51461 14.98204 35976 ft 400 kts 228°
2026-05-07 07:00 46.47862 14.92052 35986 ft 401 kts 228°
2026-05-07 07:00 46.44233 14.85868 35977 ft 402 kts 228°
2026-05-07 07:01 46.40621 14.79729 35974 ft 402 kts 228°
2026-05-07 07:01 46.36976 14.73548 35993 ft 403 kts 228°
2026-05-07 07:02 46.33350 14.67412 35996 ft 402 kts 228°
2026-05-07 07:02 46.30319 14.62294 35986 ft 403 kts 228°
2026-05-07 07:03 46.26069 14.55132 35991 ft 403 kts 228°
2026-05-07 07:03 46.23033 14.50027 36012 ft 402 kts 228°
2026-05-07 07:04 46.19363 14.43870 36000 ft 403 kts 228°
2026-05-07 07:04 46.15723 14.37777 35993 ft 403 kts 228°
2026-05-07 07:05 46.12061 14.31658 35998 ft 403 kts 228°
2026-05-07 07:05 46.08392 14.25544 35989 ft 403 kts 228°
2026-05-07 07:06 46.04712 14.19424 35987 ft 403 kts 228°
2026-05-07 07:06 46.01050 14.13347 35985 ft 404 kts 228°
2026-05-07 07:07 45.97362 14.07242 35990 ft 403 kts 228°
2026-05-07 07:07 45.93687 14.01169 35995 ft 404 kts 228°
2026-05-07 07:08 45.91830 13.98107 36162 ft 406 kts 228°
2026-05-07 07:08 45.89972 13.95047 36458 ft 406 kts 228°
2026-05-07 07:08 45.88109 13.91981 36772 ft 407 kts 228°
2026-05-07 07:08 45.86254 13.88932 36940 ft 408 kts 228°
2026-05-07 07:09 45.82509 13.82788 36968 ft 410 kts 228°
2026-05-07 07:09 45.78736 13.76611 36977 ft 410 kts 228°
2026-05-07 07:10 45.74981 13.70474 36971 ft 410 kts 228°
2026-05-07 07:10 45.71227 13.64352 36967 ft 409 kts 228°
2026-05-07 07:11 45.67461 13.58225 36975 ft 409 kts 228°
2026-05-07 07:11 45.63725 13.52162 36969 ft 408 kts 228°
2026-05-07 07:12 45.59977 13.46091 36969 ft 408 kts 228°
2026-05-07 07:12 45.56226 13.40028 36965 ft 408 kts 228°
2026-05-07 07:13 45.52459 13.33951 36997 ft 408 kts 228°
2026-05-07 07:13 45.48687 13.27882 36979 ft 408 kts 228°
2026-05-07 07:14 45.44841 13.21985 36973 ft 408 kts 226°
2026-05-07 07:14 45.40937 13.16099 36974 ft 408 kts 226°
2026-05-07 07:15 45.36804 13.10556 36974 ft 408 kts 218°
2026-05-07 07:15 45.32261 13.05779 36970 ft 408 kts 218°
2026-05-07 07:16 45.27690 13.00963 36976 ft 408 kts 218°
2026-05-07 07:16 45.23119 12.96124 36971 ft 409 kts 218°
2026-05-07 07:17 45.18594 12.91330 36975 ft 409 kts 218°
2026-05-07 07:17 45.14019 12.86490 36978 ft 409 kts 218°
2026-05-07 07:18 45.09480 12.81698 36976 ft 409 kts 218°
2026-05-07 07:18 45.04905 12.76878 36953 ft 409 kts 218°
2026-05-07 07:19 45.00355 12.72096 36966 ft 409 kts 218°
2026-05-07 07:19 44.95762 12.67277 36982 ft 410 kts 218°
2026-05-07 07:20 44.91201 12.62501 36983 ft 411 kts 218°
2026-05-07 07:20 44.86602 12.57694 36964 ft 411 kts 218°
2026-05-07 07:21 44.81996 12.52889 36970 ft 410 kts 218°
2026-05-07 07:21 44.77551 12.47918 36979 ft 409 kts 222°
2026-05-07 07:22 44.73275 12.42611 36976 ft 410 kts 223°
2026-05-07 07:22 44.68989 12.37286 36971 ft 409 kts 223°
2026-05-07 07:23 44.64734 12.32032 36982 ft 409 kts 223°
2026-05-07 07:23 44.60440 12.26757 36971 ft 409 kts 223°
2026-05-07 07:24 44.56178 12.21535 36981 ft 409 kts 223°
2026-05-07 07:24 44.51876 12.16275 36974 ft 409 kts 223°
2026-05-07 07:25 44.45444 12.08431 36983 ft 409 kts 223°
2026-05-07 07:26 44.41137 12.03190 36986 ft 410 kts 223°
2026-05-07 07:26 44.36853 11.97989 36989 ft 410 kts 223°
2026-05-07 07:27 44.32543 11.92766 36995 ft 410 kts 223°
2026-05-07 07:27 44.28221 11.87540 36990 ft 410 kts 223°
2026-05-07 07:28 44.23919 11.82348 36996 ft 410 kts 223°
2026-05-07 07:28 44.19619 11.77169 36993 ft 410 kts 223°
2026-05-07 07:29 44.15297 11.71973 36998 ft 410 kts 223°
2026-05-07 07:29 44.10960 11.66769 37018 ft 411 kts 223°
2026-05-07 07:30 44.06617 11.61568 37004 ft 411 kts 223°
2026-05-07 07:30 44.02300 11.56408 36991 ft 411 kts 223°
2026-05-07 07:31 43.98161 11.50939 37023 ft 409 kts 229°
2026-05-07 07:31 43.94398 11.45066 37010 ft 409 kts 230°
2026-05-07 07:32 43.90621 11.39152 37023 ft 408 kts 230°
2026-05-07 07:32 43.86830 11.33274 37024 ft 408 kts 229°
2026-05-07 07:33 43.83032 11.27428 37038 ft 408 kts 229°
2026-05-07 07:33 43.79221 11.21581 37021 ft 408 kts 229°
2026-05-07 07:34 43.75434 11.15784 37021 ft 408 kts 229°
2026-05-07 07:34 43.71617 11.09953 37029 ft 408 kts 229°
2026-05-07 07:35 43.67829 11.04177 37000 ft 407 kts 229°
2026-05-07 07:35 43.64023 10.98386 37012 ft 406 kts 229°
2026-05-07 07:36 43.60222 10.92614 37019 ft 405 kts 229°
2026-05-07 07:36 43.56419 10.86851 37017 ft 405 kts 229°
2026-05-07 07:37 43.52645 10.81142 37015 ft 405 kts 229°
2026-05-07 07:37 43.48833 10.75389 37007 ft 405 kts 229°
2026-05-07 07:38 43.45032 10.69664 37012 ft 404 kts 229°
2026-05-07 07:38 43.41249 10.63976 37008 ft 405 kts 229°
2026-05-07 07:39 43.37442 10.58263 37008 ft 405 kts 229°
2026-05-07 07:39 43.33630 10.52556 36996 ft 406 kts 229°
2026-05-07 07:40 43.29823 10.46867 37007 ft 406 kts 229°
2026-05-07 07:40 43.25994 10.41156 37011 ft 406 kts 229°
2026-05-07 07:41 43.22157 10.35445 37011 ft 406 kts 229°
2026-05-07 07:41 43.18334 10.29766 37013 ft 406 kts 229°
2026-05-07 07:42 43.14490 10.24068 37007 ft 406 kts 229°
2026-05-07 07:42 43.10675 10.18423 37025 ft 406 kts 230°
2026-05-07 07:43 43.06826 10.12737 37015 ft 407 kts 229°
2026-05-07 07:43 43.02989 10.07082 37011 ft 408 kts 229°
2026-05-07 07:44 42.99115 10.01381 36986 ft 408 kts 229°
2026-05-07 07:44 42.95269 9.95731 37002 ft 407 kts 231°
2026-05-07 07:44 42.93679 9.92565 37008 ft 403 kts 246°
2026-05-07 07:45 42.92811 9.88924 37008 ft 404 kts 258°
2026-05-07 07:45 42.92591 9.85142 37019 ft 407 kts 270°
2026-05-07 07:45 42.92979 9.81299 37023 ft 412 kts 280°
2026-05-07 07:45 42.93995 9.77590 37007 ft 420 kts 294°
2026-05-07 07:46 42.95574 9.74202 37021 ft 423 kts 297°
2026-05-07 07:46 42.98225 9.67133 37008 ft 418 kts 290°
2026-05-07 07:47 43.00621 9.59879 37008 ft 418 kts 289°
2026-05-07 07:47 43.01825 9.56242 36635 ft 423 kts 289°
2026-05-07 07:47 43.03032 9.52631 36077 ft 421 kts 289°
2026-05-07 07:47 43.04253 9.49004 35422 ft 419 kts 289°
2026-05-07 07:48 43.05480 9.45373 34692 ft 419 kts 289°
2026-05-07 07:48 43.06706 9.41746 33897 ft 420 kts 289°
2026-05-07 07:48 43.07935 9.38108 32988 ft 420 kts 289°
2026-05-07 07:48 43.09159 9.34479 32142 ft 419 kts 289°
2026-05-07 07:49 43.10366 9.30900 31290 ft 419 kts 289°
2026-05-07 07:49 43.11586 9.27270 30405 ft 419 kts 289°
2026-05-07 07:49 43.12398 9.24853 29755 ft 420 kts 289°
2026-05-07 07:49 43.13618 9.21218 28955 ft 416 kts 289°
2026-05-07 07:50 43.15208 9.16484 28029 ft 408 kts 289°
2026-05-07 07:50 43.16005 9.14107 27576 ft 404 kts 289°
2026-05-07 07:50 43.17150 9.10683 26932 ft 398 kts 289°
2026-05-07 07:50 43.18297 9.07246 26293 ft 393 kts 289°
2026-05-07 07:51 43.19426 9.03855 25649 ft 389 kts 289°
2026-05-07 07:51 43.20548 9.00486 25014 ft 385 kts 289°
2026-05-07 07:51 43.21657 8.97151 24391 ft 382 kts 289°
2026-05-07 07:51 43.22742 8.93885 23778 ft 379 kts 290°
2026-05-07 07:52 43.23837 8.90592 23010 ft 378 kts 290°
2026-05-07 07:52 43.24927 8.87317 22355 ft 374 kts 290°
2026-05-07 07:52 43.25994 8.84113 21744 ft 369 kts 290°
2026-05-07 07:52 43.27055 8.80922 21132 ft 366 kts 290°
2026-05-07 07:53 43.28112 8.77734 20515 ft 365 kts 290°
2026-05-07 07:53 43.29162 8.74563 19908 ft 363 kts 291°
2026-05-07 07:53 43.30199 8.71424 19354 ft 368 kts 291°
2026-05-07 07:53 43.31267 8.68193 18736 ft 372 kts 291°
2026-05-07 07:54 43.32333 8.64966 18086 ft 369 kts 292°
2026-05-07 07:54 43.33384 8.61765 17385 ft 364 kts 290°
2026-05-07 07:54 43.33994 8.58488 16920 ft 352 kts 274°
2026-05-07 07:54 43.33971 8.55190 16712 ft 341 kts 264°
2026-05-07 07:55 43.33708 8.51887 16516 ft 355 kts 263°
2026-05-07 07:55 43.33391 8.48482 16282 ft 361 kts 262°
2026-05-07 07:55 43.33071 8.45068 16052 ft 359 kts 263°
2026-05-07 07:55 43.32763 8.41678 15828 ft 351 kts 263°
2026-05-07 07:56 43.32478 8.38426 15610 ft 340 kts 263°
2026-05-07 07:56 43.32205 8.35248 15397 ft 328 kts 263°
2026-05-07 07:56 43.31944 8.32171 15214 ft 319 kts 263°
2026-05-07 07:56 43.31689 8.29161 15030 ft 316 kts 263°
2026-05-07 07:57 43.31434 8.26145 14853 ft 318 kts 263°
2026-05-07 07:57 43.31180 8.23156 14665 ft 318 kts 263°
2026-05-07 07:57 43.30923 8.20126 14469 ft 319 kts 263°
2026-05-07 07:57 43.30667 8.17122 14282 ft 319 kts 263°
2026-05-07 07:58 43.30405 8.14079 14090 ft 320 kts 263°
2026-05-07 07:58 43.30308 8.11034 13874 ft 320 kts 277°
2026-05-07 07:58 43.30928 8.08102 13690 ft 321 kts 294°
2026-05-07 07:58 43.32009 8.05413 13490 ft 321 kts 298°
2026-05-07 07:59 43.33143 8.02767 13280 ft 321 kts 298°
2026-05-07 07:59 43.34270 8.00113 13076 ft 320 kts 298°
2026-05-07 07:59 43.35368 7.97486 12888 ft 319 kts 298°
2026-05-07 07:59 43.36468 7.94833 12696 ft 318 kts 298°
2026-05-07 08:00 43.37559 7.92189 12490 ft 317 kts 298°
2026-05-07 08:00 43.38633 7.89587 12311 ft 316 kts 297°
2026-05-07 08:00 43.39714 7.86960 12114 ft 315 kts 297°
2026-05-07 08:00 43.40797 7.84325 11931 ft 314 kts 297°
2026-05-07 08:01 43.41870 7.81716 11737 ft 311 kts 297°
2026-05-07 08:01 43.42922 7.79154 11555 ft 311 kts 297°
2026-05-07 08:01 43.44005 7.76514 11384 ft 319 kts 297°
2026-05-07 08:01 43.45088 7.73873 11224 ft 317 kts 298°
2026-05-07 08:02 43.46111 7.71193 11045 ft 313 kts 288°
2026-05-07 08:02 43.46410 7.68253 10852 ft 310 kts 267°
2026-05-07 08:02 43.46099 7.65359 10677 ft 309 kts 255°
2026-05-07 08:02 43.45309 7.62611 10489 ft 309 kts 242°
2026-05-07 08:03 43.44003 7.60279 10255 ft 305 kts 225°
2026-05-07 08:03 43.42541 7.58311 10257 ft 290 kts 227°
2026-05-07 08:03 43.41164 7.56343 10189 ft 279 kts 229°
2026-05-07 08:03 43.39864 7.54381 9984 ft 271 kts 231°
2026-05-07 08:04 43.38790 7.52309 9389 ft 275 kts 251°
2026-05-07 08:04 43.38624 7.49675 8658 ft 285 kts 279°
2026-05-07 08:04 43.39149 7.47003 8032 ft 291 kts 287°
2026-05-07 08:04 43.39802 7.44387 7695 ft 286 kts 288°
2026-05-07 08:05 43.40454 7.41861 7447 ft 278 kts 288°
2026-05-07 08:05 43.41091 7.39377 7228 ft 271 kts 288°
2026-05-07 08:05 43.41706 7.36949 7019 ft 264 kts 288°
2026-05-07 08:05 43.42297 7.34591 6818 ft 257 kts 288°
2026-05-07 08:06 43.42863 7.32311 6623 ft 251 kts 288°
2026-05-07 08:06 43.43423 7.30047 6433 ft 246 kts 288°
2026-05-07 08:06 43.43973 7.27810 6143 ft 248 kts 288°
2026-05-07 08:06 43.44520 7.25577 5936 ft 244 kts 288°
2026-05-07 08:07 43.45050 7.23411 5720 ft 239 kts 288°
2026-05-07 08:07 43.45576 7.21256 5533 ft 234 kts 288°
2026-05-07 08:07 43.46089 7.19153 5352 ft 229 kts 288°
2026-05-07 08:07 43.46591 7.17093 5185 ft 224 kts 288°
2026-05-07 08:08 43.47075 7.15107 5027 ft 219 kts 288°
2026-05-07 08:08 43.47554 7.13135 4869 ft 214 kts 288°
2026-05-07 08:08 43.48023 7.11204 4699 ft 210 kts 287°
2026-05-07 08:08 43.48481 7.09317 4552 ft 205 kts 288°
2026-05-07 08:09 43.48924 7.07490 4394 ft 200 kts 287°
2026-05-07 08:09 43.49361 7.05686 4250 ft 197 kts 287°
2026-05-07 08:09 43.49933 7.04010 4083 ft 197 kts 312°
2026-05-07 08:09 43.51152 7.03152 4022 ft 206 kts 353°
2026-05-07 08:10 43.52538 7.03683 4010 ft 213 kts 32°
2026-05-07 08:10 43.53709 7.04917 4000 ft 214 kts 35°
2026-05-07 08:10 43.54866 7.06216 3992 ft 213 kts 40°
2026-05-07 08:10 43.55943 7.07627 3990 ft 212 kts 43°
2026-05-07 08:11 43.56994 7.09080 3581 ft 230 kts 43°
2026-05-07 08:11 43.58161 7.10724 3092 ft 246 kts 45°
2026-05-07 08:11 43.59327 7.12489 2609 ft 253 kts 46°
2026-05-07 08:11 43.60543 7.14213 1983 ft 245 kts 41°
2026-05-07 08:12 43.61752 7.15830 1355 ft 237 kts 45°
2026-05-07 08:12 43.62903 7.17359 899 ft 220 kts 44°
2026-05-07 08:12 43.63958 7.18737 459 ft 203 kts 44°
2026-05-07 08:12 43.64924 7.20046 123 ft 184 kts 47°
2026-05-07 08:13 43.65767 7.21212 23 ft 138 kts 44°
2026-05-07 08:13 43.66162 7.21740 21 ft 28 kts 26°
2026-05-07 08:13 43.66281 7.21663 21 ft 16 kts 315°
2026-05-07 08:13 43.66355 7.21560 21 ft 15 kts 317°
2026-05-07 08:14 43.66432 7.21467 21 ft 12 kts 314°
2026-05-07 08:14 43.66437 7.21460 21 ft 0 kts 314°